SCP
0 0 0 0 0 0 0 0 0 0 0 0 0 0 0 0 0 0 0 0 0 0 1 1 1 0 0 0 1 1 1 1 1 1 1 1 1 1 1 1 0 0 0
0 0 0 0 0 0 0 0 0 0 0 0 0 0 0 0 0 0 0 0 0 0 0 0 0 0 0 0 1 1 1 1 1 1 1 1 1 1 1 1 0 0 0
0 0 0 0 0 0 0 0 0 0 0 0 0 0 0 0 0 0 0 0 0 0 0 0 0 0 0 0 0 1 1 1 1 1 1 1 1 1 1 1 1 0 0
0 0 0 0 0 0 0 0 0 0 0 0 0 0 0 0 0 0 0 0 0 0 0 0 0 0 0 0 0 0 1 1 1 0 0 0 1 1 1 1 1 0 0
0 0 0 0 0 0 0 0 0 0 0 0 0 0 0 0 0 0 0 0 0 0 0 0 0 0 0 0 0 0 0 0 0 0 0 0 0 0 1 1 1 0 0
0 0 0 0 0 0 0 0 0 0 0 0 0 0 0 0 0 0 0 0 0 0 0 0 0 0 0 0 0 0 0 0 0 0 0 0 0 0 0 0 0 0 0
0 0 0 0 0 0 0 0 0 0 0 0 0 0 0 0 0 0 0 0 0 0 0 0 0 0 0 0 0 0 0 0 0 0 0 0 0 0 0 0 0 0 0
0 0 0 0 0 0 0 0 0 0 0 0 0 0 0 0 0 0 0 0 0 0 0 0 0 0 0 0 0 0 0 0 0 0 0 0 0 0 0 0 0 0 0
0 0 0 0 0 0 0 0 0 0 0 0 0 0 0 0 0 0 0 0 0 0 0 0 0 0 0 0 0 0 0 0 0 0 0 0 0 0 0 0 0 0 0
0 0 0 0 0 0 0 0 0 0 0 0 0 0 0 0 0 0 0 0 0 0 0 0 0 0 0 0 0 0 0 0 0 0 0 0 0 0 0 0 0 0 0
0 0 0 0 0 0 0 0 0 0 0 0 0 0 0 0 0 0 0 0 0 0 0 0 0 0 0 0 0 0 0 0 0 0 0 0 0 0 0 0 0 0 0
1 1 0 0 0 0 0 0 0 0 0 0 0 0 0 0 0 0 0 0 0 0 0 0 0 0 0 0 0 0 0 0 0 0 0 0 0 0 0 0 0 0 0
1 1 1 1 0 0 0 0 0 0 0 0 0 0 0 0 0 0 0 0 0 0 0 0 0 0 0 0 0 0 0 0 0 0 0 0 0 0 0 0 0 0 0
1 1 1 1 1 0 0 0 0 0 0 0 0 0 0 0 0 0 0 0 0 0 0 0 0 0 0 0 0 0 0 0 0 0 0 0 0 0 0 0 0 0 0
1 1 1 1 1 1 1 0 0 0 0 0 0 0 0 0 0 0 0 0 0 0 0 0 0 0 0 0 0 0 0 0 0 0 0 0 0 0 0 0 0 0 0
1 1 1 1 1 1 1 1 1 1 0 0 0 0 0 0 0 0 0 0 0 0 0 0 0 0 0 0 0 0 0 0 0 0 0 0 0 0 0 0 0 0 0
1 1 1 1 1 1 1 1 1 1 1 0 0 0 0 0 0 0 0 0 0 0 0 0 0 0 0 0 0 0 0 0 0 0 0 0 0 0 0 0 0 0 0
1 1 1 1 1 2 2 2 1 1 1 1 0 0 0 0 0 0 0 0 0 0 0 0 0 0 0 0 0 0 0 0 0 0 0 0 0 0 0 0 0 0 0
1 1 1 1 1 2 2 2 2 1 1 1 1 1 0 0 0 0 0 0 0 0 0 0 0 0 0 0 0 0 0 0 0 0 0 0 0 0 0 0 0 0 0
1 1 1 2 2 2 2 2 2 1 1 1 1 1 1 0 0 0 0 0 0 0 0 0 0 0 0 0 0 0 0 0 0 0 0 0 0 0 0 0 0 0 0
1 2 2 2 2 2 2 2 2 2 2 2 1 1 1 1 0 0 0 0 0 0 0 0 0 0 0 0 0 0 0 0 0 0 0 0 0 0 0 0 0 0 0
1 1 1 1 2 2 2 2 2 2 2 2 2 1 1 1 1 1 1 0 0 0 0 0 0 0 0 0 0 0 0 0 0 0 0 0 0 0 0 0 0 0 0
1 1 1 1 1 1 1 2 2 2 2 2 2 2 2 1 1 1 1 1 1 0 0 0 0 0 0 0 0 0 0 0 0 0 0 0 0 0 0 0 0 0 0
0 0 0 0 0 1 1 1 1 1 2 2 2 2 2 1 1 1 1 1 1 1 0 0 0 0 0 0 0 0 0 0 0 0 0 0 0 0 0 0 0 0 0
0 0 0 0 0 0 1 1 1 1 1 1 2 2 2 2 1 1 1 1 1 1 1 0 0 0 0 0 0 0 0 0 0 0 0 0 0 0 0 0 0 0 0
0 0 0 0 0 0 0 1 1 1 1 1 1 2 2 2 1 1 1 1 1 1 1 1 0 0 0 0 0 0 0 0 0 0 0 0 0 0 0 0 0 0 0
Wind_Speed
7 7 15 15 15 14 14 14 13 12 12 11 11 11 11 11 10 10 10 10 10 10 10 9 8 8 9 9 9 9 9 10 10 9 9 10 11 12 12 11 9 6 10
11 10 16 15 15 15 14 14 13 12 11 11 11 11 11 10 10 9 9 9 9 9 9 8 8 8 8 8 8 8 8 9 9 9 9 8 9 11 12 11 10 6 9
14 11 13 16 15 15 15 14 13 12 12 11 11 11 11 10 10 9 9 9 9 8 8 7 7 7 7 7 6 6 6 7 8 7 6 3 4 9 11 11 10 9 8
15 11 12 16 15 14 14 14 13 13 12 12 11 10 10 9 9 9 8 8 8 8 7 6 6 6 6 6 5 5 5 5 6 5 3 2 3 8 9 9 9 9 8
14 11 12 17 15 14 13 13 13 13 12 12 12 10 9 9 8 8 8 7 7 7 7 6 5 5 5 5 4 3 4 5 5 4 3 2 3 6 8 7 7 8 8
13 10 12 16 15 14 13 12 12 12 12 12 12 10 9 9 9 8 8 7 7 7 6 5 5 4 5 5 4 3 3 4 5 4 3 2 2 6 6 6 5 6 6
12 11 12 16 15 13 13 12 12 12 11 12 11 11 10 10 9 9 8 7 7 7 6 5 4 4 5 4 4 3 1 3 4 3 3 2 3 6 5 4 4 5 5
15 12 12 16 15 14 13 12 12 12 12 12 11 11 10 10 9 9 9 8 7 6 5 4 4 4 4 4 4 3 1 2 5 4 3 2 5 6 5 4 4 4 5
13 12 9 10 11 14 13 12 12 12 12 12 12 11 11 10 10 10 10 9 7 6 5 3 3 3 3 4 4 3 2 3 3 2 3 2 5 6 6 5 4 4 4
11 11 10 8 8 8 8 13 13 13 13 13 13 12 11 11 11 11 11 10 8 7 6 4 3 3 3 3 3 3 1 4 3 2 2 3 6 6 6 5 4 4 4
11 9 10 10 9 9 8 11 11 13 13 13 11 13 10 5 5 7 10 11 10 8 7 6 6 5 4 3 4 3 1 2 2 2 1 4 5 5 5 5 4 3 4
13 13 11 11 11 9 9 7 5 6 7 7 6 7 5 4 4 7 9 12 11 10 9 8 8 6 4 2 4 3 1 2 3 3 3 6 5 5 5 4 4 3 3
16 15 14 13 12 10 7 6 4 4 5 6 7 7 5 5 4 4 3 6 6 8 4 5 5 3 2 2 2 1 1 2 3 3 4 6 5 5 5 4 4 3 2
14 16 15 15 12 12 9 7 7 5 5 5 7 8 6 4 4 4 4 4 4 3 4 3 2 4 4 4 4 3 2 2 3 3 3 6 6 5 5 5 5 5 4
12 14 16 16 14 12 10 8 8 7 7 7 6 7 7 5 5 5 4 4 5 4 4 4 4 5 5 5 5 5 5 5 5 4 3 6 6 5 5 6 6 6 6
2 6 10 15 15 13 11 9 8 8 8 7 7 8 9 6 5 5 6 5 5 5 5 4 5 5 4 4 4 4 6 6 5 5 4 4 5 4 4 5 6 7 7
6 5 3 7 10 13 12 12 9 8 8 8 8 9 9 8 7 7 6 7 7 6 5 3 4 3 3 3 4 5 6 6 6 5 4 3 2 3 3 4 4 5 7
8 8 7 3 3 8 9 9 8 8 8 8 8 8 10 10 9 7 7 8 8 6 4 4 3 3 3 3 3 3 3 4 5 5 4 3 3 2 3 4 4 3 4
9 9 8 8 6 3 6 7 7 8 9 8 7 8 10 11 10 8 8 8 7 5 4 5 3 3 3 3 2 2 2 3 4 4 5 5 4 3 2 3 5 4 4
9 9 9 8 8 6 3 3 4 5 7 7 8 8 9 8 9 8 6 7 6 5 4 4 4 3 3 3 2 2 1 2 2 3 5 5 5 5 4 3 3 3 5
11 10 10 10 8 6 3 1 3 6 6 6 7 8 8 7 7 7 6 6 6 5 6 6 4 4 2 2 3 2 2 1 2 3 3 4 5 5 5 4 3 2 3
12 11 9 9 9 7 4 3 3 4 4 5 5 5 6 6 6 7 7 6 6 5 5 4 4 3 2 2 3 2 1 4 3 2 1 3 4 4 5 6 4 4 3
12 11 10 9 9 9 8 4 2 1 1 1 3 3 3 3 4 4 5 4 4 4 5 4 5 5 3 1 2 4 4 4 3 3 2 1 3 3 4 5 6 5 5
11 10 9 9 9 9 8 5 3 3 4 5 4 3 3 3 3 3 3 3 3 3 4 4 4 4 5 3 2 2 3 4 3 1 3 2 1 3 4 4 6 6 6
11 10 9 9 9 9 8 7 4 2 3 2 2 5 5 4 5 5 3 2 3 3 4 4 3 4 3 3 3 2 1 1 2 3 2 3 2 2 2 3 4 6 7
9 9 8 8 8 9 8 7 5 3 2 1 1 3 3 2 3 5 6 5 3 2 2 3 3 4 3 3 2 2 3 3 3 3 3 3 2 3 2 2 3 4 6
Wind_Direction
158 166 154 147 139 134 132 130 127 121 114 108 104 100 95 91 88 85 82 80 78 79 79 84 92 100 108 111 111 105 98 91 83 80 71 64 63 63 65 72 71 73 88
153 158 154 148 142 138 136 134 131 126 122 116 111 105 102 99 97 93 89 87 82 79 78 80 89 100 110 112 108 101 95 87 82 82 75 64 67 70 69 72 76 81 89
148 154 153 151 147 144 141 139 136 133 128 122 117 113 110 107 105 102 99 96 92 88 84 82 90 104 114 115 112 105 93 83 81 84 87 73 69 75 74 71 73 78 86
148 152 154 154 151 148 145 143 141 138 133 131 127 124 123 119 113 108 106 104 101 96 92 90 97 111 120 124 117 103 89 78 77 85 105 101 76 80 78 75 73 75 80
147 151 159 157 154 152 149 146 144 141 139 138 135 135 136 131 122 117 114 113 110 105 100 97 102 119 125 129 127 112 92 78 75 89 102 102 89 93 89 84 81 83 83
147 152 160 160 158 157 154 151 147 146 146 144 143 143 141 136 131 126 123 121 118 113 107 103 110 129 139 142 144 136 106 89 84 105 117 108 90 96 97 98 94 92 90
149 156 163 164 164 164 162 160 157 156 154 152 149 146 142 140 141 137 132 127 124 122 116 111 114 131 145 154 158 157 140 99 105 117 117 102 93 96 97 106 113 105 103
154 159 167 170 170 171 171 169 167 166 164 162 159 157 153 151 153 151 145 141 137 132 128 124 123 134 148 157 163 170 160 82 123 132 125 116 114 104 102 110 124 121 117
156 161 168 171 174 178 179 179 178 176 174 172 171 171 167 165 164 162 158 157 157 157 157 157 157 154 157 166 173 180 159 84 116 154 140 133 129 119 109 107 114 127 127
159 166 169 172 175 177 182 188 187 184 182 181 180 180 177 175 174 171 168 171 176 181 184 190 204 204 194 196 201 205 130 79 126 158 134 153 138 128 119 108 106 116 131
167 174 176 179 181 181 182 192 191 189 189 187 186 186 182 179 178 174 180 184 190 196 201 208 220 230 234 246 248 246 92 105 121 124 150 162 150 145 136 125 113 118 135
179 184 184 186 187 184 189 187 183 187 186 184 183 186 176 175 187 188 194 195 200 206 212 222 233 240 246 271 282 285 82 141 141 148 186 179 179 175 161 148 135 127 138
185 186 188 190 190 186 189 180 182 182 181 185 185 186 180 180 194 200 195 204 209 213 216 233 250 259 260 262 273 276 202 182 160 167 192 192 196 196 187 177 167 163 162
186 192 190 191 192 192 188 184 183 183 186 190 193 192 188 189 199 198 194 198 204 211 208 216 232 252 258 256 257 243 207 171 161 163 196 196 199 201 199 196 192 190 195
193 195 192 192 192 191 187 185 185 189 192 194 194 198 196 195 199 192 193 200 211 217 215 212 216 234 246 246 238 219 185 172 169 170 192 197 195 202 206 205 203 200 201
252 214 199 193 192 186 185 186 188 190 193 193 197 198 197 197 196 193 196 202 215 220 219 214 214 220 225 215 198 170 160 166 175 177 184 193 194 199 211 212 208 201 202
7 354 301 211 198 190 188 189 188 189 190 195 200 199 197 197 198 197 201 206 214 219 220 211 215 197 182 174 152 149 154 165 174 181 180 181 191 207 213 210 209 205 204
16 9 5 337 240 209 201 195 191 190 191 197 199 199 201 202 200 198 201 206 208 206 202 186 175 149 159 156 149 157 159 166 174 178 180 184 187 198 214 209 196 194 202
17 11 11 11 2 295 229 211 204 197 196 199 197 200 206 207 204 198 199 198 192 186 184 181 166 151 154 161 165 166 177 186 186 176 184 192 196 193 203 216 203 193 189
17 13 10 4 2 352 314 247 230 216 208 203 199 202 205 207 205 192 190 182 173 168 172 171 158 146 149 158 136 112 218 233 219 190 191 187 194 195 197 201 198 202 189
14 11 6 359 351 351 347 284 231 220 214 212 208 201 203 202 196 183 179 168 161 165 170 161 145 144 145 139 105 54 344 321 263 241 201 180 192 197 189 193 197 203 187
5 2 359 352 344 341 327 276 235 220 216 211 216 206 199 195 189 182 174 167 158 151 156 159 145 144 154 146 132 116 349 332 317 297 229 194 195 189 191 198 199 204 189
359 354 351 345 342 338 330 307 277 232 250 214 217 216 204 186 180 163 161 154 151 153 167 177 165 152 162 187 155 145 160 221 285 313 300 225 190 188 197 195 200 205 198
345 344 344 343 342 341 337 328 294 225 216 212 197 183 153 136 130 123 132 151 155 161 180 191 173 162 153 170 199 186 165 159 168 283 320 322 265 210 208 204 203 203 198
336 338 340 341 345 346 346 340 324 279 243 218 172 157 152 147 141 130 140 167 180 177 187 195 179 174 163 163 174 170 155 147 153 155 251 307 327 290 237 214 200 199 199
332 336 342 346 347 351 356 0 5 7 12 74 133 158 156 150 153 160 168 175 183 182 180 195 188 172 163 154 187 188 172 166 180 168 191 231 268 291 287 246 203 199 200